METEOSAT-8 (MSG-1)

Last updated on Fri Oct 07 2022 00:02:22 GMT+0000 (Coordinated Universal Time)

1 27509U 02040B 22279.50777774 .00000123 00000+0 00000+0 0 9999 2 27509 8.2420 50.0246 0002766 135.5667 53.8101 1.00275647 73721

Satellite not in orbit

METEOSAT-8 (MSG-1)